,,Stat6,,Stat2,,Stat8,,Stat9,,Stat10,,Wind1,,Wind1,
time,status,PA1M_AVG,status,PR1M_SUM,status,RH1M_AVG,status,SR1M_AVG,status,TA1M_AVG,status,W1dAve1m,status,W1sAve1m,
2007-07-31, 00:00:00,VALID,919.059,VALID,0,VALID,100,VALID,-0.0339617,VALID,20.0824,VALID,40,VALID,0.471236,
2007-07-31, 00:01:00,VALID,919.058,VALID,0,VALID,100,VALID,-0.0339617,VALID,20.1017,VALID,40,VALID,0.215402,
2007-07-31, 00:02:00,VALID,919.065,VALID,0,VALID,100,VALID,0,VALID,20.1276,VALID,40,VALID,0.304297,
2007-07-31, 00:03:00,VALID,919.063,VALID,0,VALID,100,VALID,-0.0339617,VALID,20.1471,VALID,40,VALID,0.0741279,
2007-07-31, 00:04:00,VALID,919.067,VALID,0,VALID,100,VALID,-0.0509425,VALID,20.1441,VALID,40,VALID,0.205305,
2007-07-31, 00:05:00,VALID,919.077,VALID,0,VALID,100,VALID,-0.0509425,VALID,20.1341,VALID,40,VALID,0.191315,
2007-07-31, 00:06:00,VALID,919.098,VALID,0,VALID,100,VALID,-0.0509425,VALID,20.1374,VALID,40,VALID,0.167459,
2007-07-31, 00:07:00,VALID,919.097,VALID,0,VALID,100,VALID,0,VALID,20.1471,VALID,40,VALID,0.356357,
2007-07-31, 00:08:00,VALID,919.105,VALID,0,VALID,100,VALID,-0.0339617,VALID,20.1636,VALID,40,VALID,0.326882,
2007-07-31, 00:09:00,VALID,919.096,VALID,0,VALID,100,VALID,0,VALID,20.1633,VALID,40,VALID,0.781059,
2007-07-31, 00:10:00,VALID,919.084,VALID,0,VALID,100,VALID,-0.0509425,VALID,20.1768,VALID,40,VALID,1.00854,
2007-07-31, 00:11:00,VALID,919.077,VALID,0,VALID,100,VALID,-0.0509425,VALID,20.2025,VALID,39,VALID,0.824929,
2007-07-31, 00:12:00,VALID,919.063,VALID,0,VALID,100,VALID,-0.0169808,VALID,20.222,VALID,35,VALID,0.839177,
2007-07-31, 00:13:00,VALID,919.055,VALID,0,VALID,100,VALID,-0.0169808,VALID,20.2317,VALID,35,VALID,0.73402,
2007-07-31, 00:14:00,VALID,919.044,VALID,0,VALID,100,VALID,-0.0679233,VALID,20.2385,VALID,33,VALID,0.571243,
2007-07-31, 00:15:00,VALID,919.028,VALID,0,VALID,100,VALID,-0.0339617,VALID,20.2474,VALID,28,VALID,0.510719,
2007-07-31, 00:16:00,VALID,919.028,VALID,0,VALID,100,VALID,-0.0339617,VALID,20.2639,VALID,28,VALID,0.356213,
2007-07-31, 00:17:00,VALID,919.01,VALID,0,VALID,100,VALID,0,VALID,20.2639,VALID,28,VALID,0.150298,
2007-07-31, 00:18:00,VALID,919.001,VALID,0,VALID,100,VALID,-0.0509425,VALID,20.2707,VALID,28,VALID,0.278832,
2007-07-31, 00:19:00,VALID,919.004,VALID,0,VALID,100,VALID,-0.0509425,VALID,20.2834,VALID,28,VALID,0.273828,
2007-07-31, 00:20:00,VALID,918.984,VALID,0,VALID,100,VALID,-0.0339617,VALID,20.3061,VALID,28,VALID,0.207217,
2007-07-31, 00:21:00,VALID,918.98,VALID,0,VALID,100,VALID,-0.0509425,VALID,20.3223,VALID,345,VALID,0.387386,
2007-07-31, 00:22:00,VALID,918.974,VALID,0,VALID,100,VALID,-0.0339617,VALID,20.3288,VALID,5,VALID,0.013529,
2007-07-31, 00:23:00,VALID,918.972,VALID,0,VALID,100,VALID,-0.0339617,VALID,20.3491,VALID,5,VALID,0.238477,
2007-07-31, 00:24:00,VALID,918.96,VALID,0,VALID,100,VALID,-0.0169808,VALID,20.3515,VALID,5,VALID,0.476563,
2007-07-31, 00:25:00,VALID,918.953,VALID,0,VALID,100,VALID,-0.0339617,VALID,20.3515,VALID,5,VALID,0.238653,
2007-07-31, 00:26:00,VALID,918.951,VALID,0,VALID,100,VALID,-0.0339617,VALID,20.358,VALID,5,VALID,0,
2007-07-31, 00:27:00,VALID,918.951,VALID,0,VALID,100,VALID,-0.0509425,VALID,20.3515,VALID,5,VALID,0.00130208,
2007-07-31, 00:28:00,VALID,918.945,VALID,0,VALID,100,VALID,-0.101885,VALID,20.3548,VALID,5,VALID,0.0947027,
2007-07-31, 00:29:00,VALID,918.95,VALID,0,VALID,100,VALID,-0.0339617,VALID,20.3358,VALID,14,VALID,0.484738,
2007-07-31, 00:30:00,VALID,918.948,VALID,0,VALID,100,VALID,0.0169808,VALID,20.3148,VALID,18,VALID,0.581424,
2007-07-31, 00:31:00,VALID,918.938,VALID,0,VALID,100,VALID,0.0169808,VALID,20.3018,VALID,27,VALID,0.744978,
2007-07-31, 00:32:00,VALID,918.927,VALID,0,VALID,100,VALID,0.0339617,VALID,20.3046,VALID,29,VALID,0.652344,
2007-07-31, 00:33:00,VALID,918.915,VALID,0,VALID,100,VALID,0.0509425,VALID,20.3243,VALID,29,VALID,0.30236,
2007-07-31, 00:34:00,VALID,918.908,VALID,0,VALID,100,VALID,0.0679233,VALID,20.3273,VALID,29,VALID,0.228413,
2007-07-31, 00:35:00,VALID,918.898,VALID,0,VALID,100,VALID,0.0509425,VALID,20.3467,VALID,29,VALID,0.0299782,
2007-07-31, 00:36:00,VALID,918.918,VALID,0,VALID,100,VALID,0.0509425,VALID,20.36,VALID,29,VALID,0.326853,
2007-07-31, 00:37:00,VALID,918.921,VALID,0,VALID,100,VALID,0.0509425,VALID,20.3697,VALID,29,VALID,0.19931,
2007-07-31, 00:38:00,VALID,918.908,VALID,0,VALID,100,VALID,0,VALID,20.357,VALID,39,VALID,0.680596,
2007-07-31, 00:39:00,VALID,918.897,VALID,0,VALID,100,VALID,0.0339617,VALID,20.3702,VALID,35,VALID,1.05313,
2007-07-31, 00:40:00,VALID,918.883,VALID,0,VALID,100,VALID,0.0849042,VALID,20.3697,VALID,29,VALID,0.920058,
2007-07-31, 00:41:00,VALID,918.874,VALID,0,VALID,100,VALID,0.0509425,VALID,20.3727,VALID,27,VALID,0.767756,
2007-07-31, 00:42:00,VALID,918.868,VALID,0,VALID,100,VALID,0.0849042,VALID,20.3792,VALID,27,VALID,0.607376,
2007-07-31, 00:43:00,VALID,918.83,VALID,0,VALID,100,VALID,0.0849042,VALID,20.3857,VALID,21,VALID,0.552778,
2007-07-31, 00:44:00,VALID,918.821,VALID,0,VALID,100,VALID,0.0339617,VALID,20.373,VALID,329,VALID,0.485677,
2007-07-31, 00:45:00,VALID,918.818,VALID,0,VALID,100,VALID,-0.0339617,VALID,20.3418,VALID,301,VALID,0.298828,
2007-07-31, 00:46:00,VALID,918.815,VALID,0,VALID,100,VALID,-0.0679233,VALID,20.348,VALID,309,VALID,0.0145597,
2007-07-31, 00:47:00,VALID,918.81,VALID,0,VALID,100,VALID,-0.0339617,VALID,20.3678,VALID,309,VALID,0.204215,
2007-07-31, 00:48:00,VALID,918.795,VALID,0,VALID,100,VALID,-0.0339617,VALID,20.3935,VALID,309,VALID,0.215588,
2007-07-31, 00:49:00,VALID,918.792,VALID,0,VALID,100,VALID,-0.0509425,VALID,20.4035,VALID,317,VALID,0.389915,
2007-07-31, 00:50:00,VALID,918.769,VALID,0,VALID,100,VALID,-0.0679233,VALID,20.4137,VALID,336,VALID,0.297247,
2007-07-31, 00:51:00,VALID,918.772,VALID,0,VALID,100,VALID,-0.0339617,VALID,20.4197,VALID,346,VALID,0.596354,
2007-07-31, 00:52:00,VALID,918.754,VALID,0,VALID,100,VALID,-0.0169808,VALID,20.4427,VALID,14,VALID,0.584121,
2007-07-31, 00:53:00,VALID,918.738,VALID,0,VALID,100,VALID,0,VALID,20.4294,VALID,36,VALID,0.870898,
2007-07-31, 00:54:00,VALID,918.722,VALID,0,VALID,100,VALID,-0.0169808,VALID,20.4356,VALID,36,VALID,0.599864,
2007-07-31, 00:55:00,VALID,918.708,VALID,0,VALID,100,VALID,-0.0339617,VALID,20.4356,VALID,36,VALID,0.146984,
2007-07-31, 00:56:00,VALID,918.694,VALID,0,VALID,100,VALID,-0.0169808,VALID,20.4389,VALID,36,VALID,0.0403646,
2007-07-31, 00:57:00,VALID,918.693,VALID,0,VALID,100,VALID,0,VALID,20.4391,VALID,36,VALID,0.122917,
2007-07-31, 00:58:00,VALID,918.679,VALID,0,VALID,100,VALID,-0.0169808,VALID,20.4456,VALID,29,VALID,0.158975,
2007-07-31, 00:59:00,VALID,918.668,VALID,0,VALID,100,VALID,0,VALID,20.4459,VALID,27,VALID,0.0182292,
2007-07-31, 01:00:00,VALID,918.658,VALID,0,VALID,100,VALID,-0.0339617,VALID,20.4456,VALID,27,VALID,0,
2007-07-31, 01:01:00,VALID,918.639,VALID,0,VALID,100,VALID,0,VALID,20.4489,VALID,27,VALID,0.0486328,
2007-07-31, 01:02:00,VALID,918.638,VALID,0,VALID,100,VALID,-0.0169808,VALID,20.4581,VALID,27,VALID,0.440662,
2007-07-31, 01:03:00,VALID,918.64,VALID,0,VALID,100,VALID,-0.0169808,VALID,20.4586,VALID,27,VALID,0.414621,
2007-07-31, 01:04:00,VALID,918.656,VALID,0,VALID,100,VALID,0,VALID,20.4489,VALID,27,VALID,0.14968,
2007-07-31, 01:05:00,VALID,918.67,VALID,0,VALID,100,VALID,-0.0339617,VALID,20.4327,VALID,30,VALID,0.606213,
2007-07-31, 01:06:00,VALID,918.681,VALID,0,VALID,100,VALID,0,VALID,20.4294,VALID,33,VALID,0.636102,
2007-07-31, 01:07:00,VALID,918.681,VALID,0,VALID,100,VALID,-0.0169808,VALID,20.4456,VALID,33,VALID,0.471484,
2007-07-31, 01:08:00,VALID,918.677,VALID,0,VALID,100,VALID,-0.0339617,VALID,20.4299,VALID,33,VALID,0.416602,
2007-07-31, 01:09:00,VALID,918.663,VALID,0,VALID,100,VALID,-0.0169808,VALID,20.4199,VALID,32,VALID,0.473675,
2007-07-31, 01:10:00,VALID,918.657,VALID,0,VALID,100,VALID,-0.0679233,VALID,20.4099,VALID,31,VALID,0.465661,
2007-07-31, 01:11:00,VALID,918.652,VALID,0,VALID,100,VALID,-0.0679233,VALID,20.407,VALID,9,VALID,0.346094,
2007-07-31, 01:12:00,VALID,918.639,VALID,0,VALID,100,VALID,-0.0679233,VALID,20.3877,VALID,8,VALID,0.175586,
2007-07-31, 01:13:00,VALID,918.621,VALID,0,VALID,100,VALID,-0.0509425,VALID,20.3748,VALID,8,VALID,0.240699,
2007-07-31, 01:14:00,VALID,918.604,VALID,0,VALID,100,VALID,-0.0849042,VALID,20.385,VALID,14,VALID,0.960747,
2007-07-31, 01:15:00,VALID,918.577,VALID,0,VALID,100,VALID,-0.0849042,VALID,20.355,VALID,17,VALID,1.0692,
2007-07-31, 01:16:00,VALID,918.561,VALID,0,VALID,100,VALID,-0.0849042,VALID,20.3388,VALID,29,VALID,1.28543,
2007-07-31, 01:17:00,VALID,918.543,VALID,0,VALID,100,VALID,-0.0509425,VALID,20.3221,VALID,37,VALID,1.32868,
2007-07-31, 01:18:00,VALID,918.539,VALID,0,VALID,100,VALID,-0.0509425,VALID,20.3258,VALID,38,VALID,1.16934,
2007-07-31, 01:19:00,VALID,918.539,VALID,0,VALID,100,VALID,-0.0849042,VALID,20.3096,VALID,34,VALID,0.825994,
2007-07-31, 01:20:00,VALID,918.517,VALID,0,VALID,100,VALID,-0.0509425,VALID,20.3326,VALID,34,VALID,0.613554,
2007-07-31, 01:21:00,VALID,918.52,VALID,0,VALID,100,VALID,-0.0339617,VALID,20.3353,VALID,37,VALID,0.985937,
2007-07-31, 01:22:00,VALID,918.508,VALID,0,VALID,100,VALID,-0.0679233,VALID,20.3423,VALID,28,VALID,0.580171,
2007-07-31, 01:23:00,VALID,918.495,VALID,0,VALID,100,VALID,-0.0679233,VALID,20.3321,VALID,26,VALID,0.339208,
2007-07-31, 01:24:00,VALID,918.498,VALID,0,VALID,100,VALID,-0.0169808,VALID,20.3456,VALID,26,VALID,0.114757,
2007-07-31, 01:25:00,VALID,918.511,VALID,0,VALID,100,VALID,-0.0679233,VALID,20.3623,VALID,26,VALID,0.247255,
2007-07-31, 01:26:00,VALID,918.5,VALID,0,VALID,100,VALID,-0.0509425,VALID,20.3515,VALID,26,VALID,0.378534,
2007-07-31, 01:27:00,VALID,918.494,VALID,0,VALID,100,VALID,-0.0679233,VALID,20.362,VALID,26,VALID,0.651296,
2007-07-31, 01:28:00,VALID,918.483,VALID,0,VALID,100,VALID,-0.0679233,VALID,20.365,VALID,26,VALID,0.49668,
2007-07-31, 01:29:00,VALID,918.46,VALID,0,VALID,100,VALID,-0.0339617,VALID,20.378,VALID,26,VALID,0.546875,
2007-07-31, 01:30:00,VALID,918.45,VALID,0,VALID,100,VALID,-0.0679233,VALID,20.3715,VALID,2,VALID,0.458984,
2007-07-31, 01:31:00,VALID,918.438,VALID,0,VALID,100,VALID,-0.0509425,VALID,20.352,VALID,1,VALID,0.665879,
2007-07-31, 01:32:00,VALID,918.425,VALID,0,VALID,100,VALID,-0.0849042,VALID,20.3233,VALID,11,VALID,0.573219,
2007-07-31, 01:33:00,VALID,918.399,VALID,0,VALID,100,VALID,-0.0679233,VALID,20.3064,VALID,12,VALID,0.571057,
2007-07-31, 01:34:00,VALID,918.376,VALID,0,VALID,100,VALID,-0.0339617,VALID,20.3096,VALID,14,VALID,0.597479,
2007-07-31, 01:35:00,VALID,918.347,VALID,0,VALID,100,VALID,-0.0339617,VALID,20.2901,VALID,10,VALID,0.957986,
2007-07-31, 01:36:00,VALID,918.331,VALID,0,VALID,100,VALID,-0.0849042,VALID,20.2674,VALID,14,VALID,0.724609,
2007-07-31, 01:37:00,VALID,918.311,VALID,0,VALID,100,VALID,-0.0339617,VALID,20.2607,VALID,30,VALID,0.6746,
2007-07-31, 01:38:00,VALID,918.301,VALID,0,VALID,100,VALID,-0.0339617,VALID,20.2672,VALID,30,VALID,0.664249,
2007-07-31, 01:39:00,VALID,918.297,VALID,0,VALID,100,VALID,-0.0679233,VALID,20.2607,VALID,38,VALID,0.954985,
2007-07-31, 01:40:00,VALID,918.271,VALID,0,VALID,100,VALID,0,VALID,20.2574,VALID,46,VALID,0.392805,
2007-07-31, 01:41:00,VALID,918.248,VALID,0,VALID,100,VALID,-0.0169808,VALID,20.2672,VALID,46,VALID,0.0646802,
2007-07-31, 01:42:00,VALID,918.239,VALID,0,VALID,100,VALID,0,VALID,20.2771,VALID,46,VALID,0,
2007-07-31, 01:43:00,VALID,918.23,VALID,0,VALID,100,VALID,0,VALID,20.2639,VALID,46,VALID,0.0012429,
2007-07-31, 01:44:00,VALID,918.209,VALID,0,VALID,100,VALID,0,VALID,20.2477,VALID,46,VALID,0,
2007-07-31, 01:45:00,VALID,918.198,VALID,0,VALID,100,VALID,-0.0339617,VALID,20.2444,VALID,46,VALID,0,
2007-07-31, 01:46:00,VALID,918.182,VALID,0,VALID,100,VALID,0,VALID,20.2447,VALID,46,VALID,0,
2007-07-31, 01:47:00,VALID,918.169,VALID,0,VALID,99.9977,VALID,0,VALID,20.2282,VALID,46,VALID,0,
2007-07-31, 01:48:00,VALID,918.156,VALID,0,VALID,99.9583,VALID,0,VALID,20.2023,VALID,46,VALID,0,
2007-07-31, 01:49:00,VALID,918.152,VALID,0,VALID,99.999,VALID,-0.0169808,VALID,20.1733,VALID,46,VALID,0,
2007-07-31, 01:50:00,VALID,918.133,VALID,0,VALID,100,VALID,-0.0339617,VALID,20.1346,VALID,46,VALID,0.021984,
2007-07-31, 01:51:00,VALID,918.117,VALID,0,VALID,99.9901,VALID,0,VALID,20.0854,VALID,57,VALID,0.749414,
2007-07-31, 01:52:00,VALID,918.11,VALID,0,VALID,99.8858,VALID,-0.0339617,VALID,20.0305,VALID,80,VALID,0.813194,
2007-07-31, 01:53:00,VALID,918.104,VALID,0,VALID,100,VALID,-0.0509425,VALID,19.9951,VALID,83,VALID,0.479688,
2007-07-31, 01:54:00,VALID,918.084,VALID,0,VALID,100,VALID,-0.0169808,VALID,19.9362,VALID,82,VALID,0.571875,
2007-07-31, 01:55:00,VALID,918.09,VALID,0,VALID,100,VALID,0,VALID,19.8875,VALID,82,VALID,0.422637,
2007-07-31, 01:56:00,VALID,918.094,VALID,0,VALID,100,VALID,-0.0339617,VALID,19.8451,VALID,82,VALID,0.436458,
2007-07-31, 01:57:00,VALID,918.102,VALID,0,VALID,100,VALID,0,VALID,19.8129,VALID,82,VALID,0.456032,
2007-07-31, 01:58:00,VALID,918.084,VALID,0,VALID,100,VALID,-0.0169808,VALID,19.7804,VALID,83,VALID,0.482422,
2007-07-31, 01:59:00,VALID,918.07,VALID,0,VALID,100,VALID,-0.0339617,VALID,19.7415,VALID,100,VALID,0.525856,
2007-07-31, 02:00:00,VALID,918.038,VALID,0,VALID,100,VALID,-0.0339617,VALID,19.7155,VALID,157,VALID,0.582217,
2007-07-31, 02:01:00,VALID,917.987,VALID,0,VALID,100,VALID,-0.0509425,VALID,19.6896,VALID,158,VALID,0.423399,
2007-07-31, 02:02:00,VALID,917.95,VALID,0,VALID,100,VALID,-0.0339617,VALID,19.6801,VALID,158,VALID,0.182884,
2007-07-31, 02:03:00,VALID,917.945,VALID,0,VALID,100,VALID,-0.0509425,VALID,19.6704,VALID,158,VALID,0.0589489,
2007-07-31, 02:04:00,VALID,917.94,VALID,0,VALID,100,VALID,-0.0169808,VALID,19.6441,VALID,143,VALID,0.430069,
2007-07-31, 02:05:00,VALID,917.941,VALID,0,VALID,100,VALID,-0.0339617,VALID,19.586,VALID,132,VALID,0.764436,
2007-07-31, 02:06:00,VALID,917.935,VALID,0,VALID,100,VALID,-0.0169808,VALID,19.5403,VALID,132,VALID,0.625744,
2007-07-31, 02:07:00,VALID,917.92,VALID,0,VALID,100,VALID,-0.0339617,VALID,19.5243,VALID,132,VALID,0.559593,
2007-07-31, 02:08:00,VALID,917.917,VALID,0,VALID,100,VALID,-0.0509425,VALID,19.5176,VALID,133,VALID,0.429506,
2007-07-31, 02:09:00,VALID,917.898,VALID,0,VALID,100,VALID,-0.0339617,VALID,19.5046,VALID,134,VALID,0.483073,
2007-07-31, 02:10:00,VALID,917.893,VALID,0,VALID,100,VALID,-0.0169808,VALID,19.5046,VALID,151,VALID,0.720703,
2007-07-31, 02:11:00,VALID,917.876,VALID,0,VALID,100,VALID,-0.0509425,VALID,19.5146,VALID,168,VALID,0.627663,
2007-07-31, 02:12:00,VALID,917.87,VALID,0,VALID,100,VALID,-0.0169808,VALID,19.5206,VALID,168,VALID,0.640053,
2007-07-31, 02:13:00,VALID,917.856,VALID,0,VALID,100,VALID,-0.0509425,VALID,19.5209,VALID,172,VALID,0.484896,
2007-07-31, 02:14:00,VALID,917.855,VALID,0,VALID,100,VALID,-0.0509425,VALID,19.5176,VALID,177,VALID,0.610085,
2007-07-31, 02:15:00,VALID,917.849,VALID,0,VALID,100,VALID,-0.0509425,VALID,19.5014,VALID,176,VALID,0.343205,
2007-07-31, 02:16:00,VALID,917.865,VALID,0,VALID,100,VALID,0,VALID,19.4784,VALID,176,VALID,0,
2007-07-31, 02:17:00,VALID,917.871,VALID,0,VALID,100,VALID,-0.0339617,VALID,19.43,VALID,176,VALID,0.0902158,
2007-07-31, 02:18:00,VALID,917.866,VALID,0,VALID,100,VALID,-0.0509425,VALID,19.3746,VALID,176,VALID,0.156977,
2007-07-31, 02:19:00,VALID,917.849,VALID,0,VALID,100,VALID,0,VALID,19.3517,VALID,176,VALID,0,
2007-07-31, 02:20:00,VALID,917.846,VALID,0,VALID,100,VALID,-0.0169808,VALID,19.3292,VALID,176,VALID,0,
2007-07-31, 02:21:00,VALID,917.839,VALID,0,VALID,100,VALID,-0.0169808,VALID,19.31,VALID,176,VALID,0,
2007-07-31, 02:22:00,VALID,917.856,VALID,0,VALID,100,VALID,0,VALID,19.3132,VALID,176,VALID,0,
2007-07-31, 02:23:00,VALID,917.86,VALID,0,VALID,100,VALID,-0.0169808,VALID,19.3359,VALID,176,VALID,0,
2007-07-31, 02:24:00,VALID,917.854,VALID,0,VALID,100,VALID,0,VALID,19.3651,VALID,176,VALID,0,
2007-07-31, 02:25:00,VALID,917.847,VALID,0,VALID,100,VALID,-0.0169808,VALID,19.3749,VALID,176,VALID,0,
2007-07-31, 02:26:00,VALID,917.84,VALID,0,VALID,100,VALID,-0.0169808,VALID,19.3716,VALID,176,VALID,0,
2007-07-31, 02:27:00,VALID,917.825,VALID,0,VALID,100,VALID,-0.0169808,VALID,19.2905,VALID,161,VALID,0.318859,
2007-07-31, 02:28:00,VALID,917.809,VALID,0,VALID,100,VALID,-0.0339617,VALID,19.1415,VALID,112,VALID,0.77907,
2007-07-31, 02:29:00,VALID,917.776,VALID,0,VALID,100,VALID,0,VALID,19.0502,VALID,89,VALID,1.00324,
2007-07-31, 02:30:00,VALID,917.783,VALID,0,VALID,100,VALID,-0.0679233,VALID,18.9918,VALID,92,VALID,0.807106,
2007-07-31, 02:31:00,VALID,917.784,VALID,0,VALID,100,VALID,-0.0339617,VALID,19.0699,VALID,97,VALID,0.923363,
2007-07-31, 02:32:00,VALID,917.782,VALID,0,VALID,100,VALID,-0.0169808,VALID,19.1637,VALID,98,VALID,0.883176,
2007-07-31, 02:33:00,VALID,917.763,VALID,0,VALID,100,VALID,-0.0849042,VALID,19.2289,VALID,98,VALID,0.703926,
2007-07-31, 02:34:00,VALID,917.758,VALID,0,VALID,100,VALID,-0.0339617,VALID,19.18,VALID,98,VALID,0.794034,
2007-07-31, 02:35:00,VALID,917.745,VALID,0,VALID,100,VALID,-0.0169808,VALID,19.1705,VALID,89,VALID,0.938743,
2007-07-31, 02:36:00,VALID,917.742,VALID,0,VALID,100,VALID,-0.0849042,VALID,19.1408,VALID,86,VALID,0.939918,
2007-07-31, 02:37:00,VALID,917.748,VALID,0,VALID,100,VALID,-0.0509425,VALID,19.167,VALID,85,VALID,0.977344,
2007-07-31, 02:38:00,VALID,917.753,VALID,0,VALID,100,VALID,0,VALID,19.1862,VALID,83,VALID,0.908203,
2007-07-31, 02:39:00,VALID,917.738,VALID,0,VALID,100,VALID,-0.0339617,VALID,19.2386,VALID,82,VALID,0.521391,
2007-07-31, 02:40:00,VALID,917.75,VALID,0,VALID,100,VALID,-0.0169808,VALID,19.2319,VALID,82,VALID,0.0743963,
2007-07-31, 02:41:00,VALID,917.751,VALID,0,VALID,100,VALID,-0.0339617,VALID,19.2481,VALID,82,VALID,0.0440848,
2007-07-31, 02:42:00,VALID,917.754,VALID,0,VALID,100,VALID,-0.0169808,VALID,19.2411,VALID,82,VALID,0,
2007-07-31, 02:43:00,VALID,917.753,VALID,0,VALID,100,VALID,-0.0339617,VALID,19.2344,VALID,83,VALID,0,
2007-07-31, 02:44:00,VALID,917.732,VALID,0,VALID,100,VALID,0,VALID,19.2281,VALID,82,VALID,0,
2007-07-31, 02:45:00,VALID,917.702,VALID,0,VALID,100,VALID,0,VALID,19.2451,VALID,83,VALID,0,
2007-07-31, 02:46:00,VALID,917.676,VALID,0,VALID,100,VALID,-0.0169808,VALID,19.2054,VALID,83,VALID,0,
2007-07-31, 02:47:00,VALID,917.661,VALID,0,VALID,100,VALID,-0.0509425,VALID,19.1899,VALID,82,VALID,0.295541,
2007-07-31, 02:48:00,VALID,917.639,VALID,0,VALID,100,VALID,0,VALID,19.1922,VALID,82,VALID,0.52689,
2007-07-31, 02:49:00,VALID,917.609,VALID,0,VALID,100,VALID,-0.0169808,VALID,19.1698,VALID,78,VALID,0.845274,
2007-07-31, 02:50:00,VALID,917.598,VALID,0,VALID,100,VALID,-0.0169808,VALID,19.0208,VALID,74,VALID,0.955729,
2007-07-31, 02:51:00,VALID,917.59,VALID,0,VALID,100,VALID,-0.0169808,VALID,18.9786,VALID,73,VALID,0.737827,
2007-07-31, 02:52:00,VALID,917.577,VALID,0,VALID,100,VALID,-0.0169808,VALID,19.0245,VALID,73,VALID,0.371466,
2007-07-31, 02:53:00,VALID,917.599,VALID,0,VALID,100,VALID,-0.0169808,VALID,19.011,VALID,73,VALID,0.189596,
2007-07-31, 02:54:00,VALID,917.601,VALID,0,VALID,100,VALID,-0.0339617,VALID,19.0143,VALID,73,VALID,0,
2007-07-31, 02:55:00,VALID,917.592,VALID,0,VALID,100,VALID,-0.0339617,VALID,18.9981,VALID,73,VALID,0,
2007-07-31, 02:56:00,VALID,917.6,VALID,0,VALID,100,VALID,-0.0509425,VALID,18.9791,VALID,73,VALID,0,
2007-07-31, 02:57:00,VALID,917.566,VALID,0,VALID,100,VALID,-0.0339617,VALID,18.92,VALID,73,VALID,0,
2007-07-31, 02:58:00,VALID,917.557,VALID,0,VALID,100,VALID,-0.0679233,VALID,18.8623,VALID,73,VALID,0,
2007-07-31, 02:59:00,VALID,917.535,VALID,0,VALID,100,VALID,-0.0169808,VALID,18.8134,VALID,73,VALID,0,
2007-07-31, 03:00:00,VALID,917.51,VALID,0,VALID,100,VALID,-0.0339617,VALID,18.7775,VALID,73,VALID,0.075218,
2007-07-31, 03:01:00,VALID,917.493,VALID,0,VALID,100,VALID,0,VALID,18.7321,VALID,73,VALID,0.12157,
2007-07-31, 03:02:00,VALID,917.479,VALID,0,VALID,100,VALID,-0.0169808,VALID,18.6934,VALID,73,VALID,0.00625,
2007-07-31, 03:03:00,VALID,917.451,VALID,0,VALID,100,VALID,-0.0509425,VALID,18.6897,VALID,73,VALID,0.24375,
2007-07-31, 03:04:00,VALID,917.443,VALID,0,VALID,100,VALID,-0.0679233,VALID,18.7064,VALID,73,VALID,0.301258,
2007-07-31, 03:05:00,VALID,917.438,VALID,0,VALID,100,VALID,-0.0169808,VALID,18.7254,VALID,73,VALID,0.312682,
2007-07-31, 03:06:00,VALID,917.429,VALID,0,VALID,100,VALID,-0.0169808,VALID,18.7196,VALID,73,VALID,0.448552,
2007-07-31, 03:07:00,VALID,917.418,VALID,0,VALID,100,VALID,-0.0339617,VALID,18.7353,VALID,73,VALID,0.363814,
2007-07-31, 03:08:00,VALID,917.418,VALID,0,VALID,100,VALID,-0.0509425,VALID,18.8004,VALID,73,VALID,0.292629,
2007-07-31, 03:09:00,VALID,917.412,VALID,0,VALID,100,VALID,-0.101885,VALID,18.8526,VALID,73,VALID,0.00266335,
2007-07-31, 03:10:00,VALID,917.399,VALID,0,VALID,100,VALID,-0.0169808,VALID,18.8588,VALID,73,VALID,0.199491,
2007-07-31, 03:11:00,VALID,917.394,VALID,0,VALID,100,VALID,-0.0169808,VALID,18.875,VALID,73,VALID,0.285633,
2007-07-31, 03:12:00,VALID,917.383,VALID,0,VALID,100,VALID,-0.0169808,VALID,18.8556,VALID,71,VALID,0.267721,
2007-07-31, 03:13:00,VALID,917.39,VALID,0,VALID,100,VALID,-0.0679233,VALID,18.6644,VALID,71,VALID,0.214748,
2007-07-31, 03:14:00,VALID,917.383,VALID,0,VALID,100,VALID,-0.0849042,VALID,18.5507,VALID,69,VALID,0.654576,
2007-07-31, 03:15:00,VALID,917.395,VALID,0,VALID,100,VALID,-0.0509425,VALID,18.5891,VALID,69,VALID,0.49564,
2007-07-31, 03:16:00,VALID,917.391,VALID,0,VALID,100,VALID,-0.0169808,VALID,18.6679,VALID,69,VALID,0.427455,
2007-07-31, 03:17:00,VALID,917.402,VALID,0,VALID,100,VALID,-0.0339617,VALID,18.6869,VALID,69,VALID,0.331101,
2007-07-31, 03:18:00,VALID,917.409,VALID,0,VALID,100,VALID,-0.0169808,VALID,18.7034,VALID,69,VALID,0.0853924,
2007-07-31, 03:19:00,VALID,917.422,VALID,0,VALID,100,VALID,-0.0169808,VALID,18.7031,VALID,69,VALID,0.0636719,
2007-07-31, 03:20:00,VALID,917.436,VALID,0,VALID,100,VALID,-0.0169808,VALID,18.7001,VALID,68,VALID,0.130729,
2007-07-31, 03:21:00,VALID,917.445,VALID,0,VALID,100,VALID,-0.0339617,VALID,18.6705,VALID,68,VALID,0.145894,
2007-07-31, 03:22:00,VALID,917.444,VALID,0,VALID,100,VALID,-0.0169808,VALID,18.7059,VALID,68,VALID,0.249132,
2007-07-31, 03:23:00,VALID,917.449,VALID,0,VALID,100,VALID,-0.0169808,VALID,18.7059,VALID,37,VALID,0.344151,
2007-07-31, 03:24:00,VALID,917.474,VALID,0,VALID,100,VALID,-0.0169808,VALID,18.7451,VALID,6,VALID,0.242188,
2007-07-31, 03:25:00,VALID,917.505,VALID,0,VALID,100,VALID,-0.0509425,VALID,18.771,VALID,5,VALID,0.160334,
2007-07-31, 03:26:00,VALID,917.52,VALID,0,VALID,100,VALID,0,VALID,18.8231,VALID,3,VALID,0.275799,
2007-07-31, 03:27:00,VALID,917.529,VALID,0,VALID,100,VALID,-0.0509425,VALID,18.8526,VALID,3,VALID,0.31179,
2007-07-31, 03:28:00,VALID,917.531,VALID,0,VALID,100,VALID,-0.0339617,VALID,18.8493,VALID,3,VALID,0.0334302,
2007-07-31, 03:29:00,VALID,917.537,VALID,0,VALID,100,VALID,-0.0169808,VALID,18.8322,VALID,3,VALID,0.124619,
2007-07-31, 03:30:00,VALID,917.551,VALID,0,VALID,100,VALID,0.0849042,VALID,18.7826,VALID,11,VALID,0.3391,
2007-07-31, 03:31:00,VALID,917.586,VALID,0,VALID,100,VALID,0.101885,VALID,18.6491,VALID,13,VALID,0.0247093,
2007-07-31, 03:32:00,VALID,917.603,VALID,0,VALID,100,VALID,0.0849042,VALID,18.591,VALID,13,VALID,0.218387,
2007-07-31, 03:33:00,VALID,917.618,VALID,0,VALID,100,VALID,0.0849042,VALID,18.5388,VALID,132,VALID,0.771354,
2007-07-31, 03:34:00,VALID,917.637,VALID,0,VALID,100,VALID,0.0679233,VALID,18.5393,VALID,173,VALID,0.729226,
2007-07-31, 03:35:00,VALID,917.618,VALID,0,VALID,100,VALID,0.118866,VALID,18.5391,VALID,178,VALID,0.735777,
2007-07-31, 03:36:00,VALID,917.6,VALID,0,VALID,100,VALID,0.0679233,VALID,18.5426,VALID,178,VALID,0.675,
2007-07-31, 03:37:00,VALID,917.589,VALID,0,VALID,100,VALID,0.101885,VALID,18.5518,VALID,178,VALID,0.250908,
2007-07-31, 03:38:00,VALID,917.558,VALID,0,VALID,100,VALID,0.0849042,VALID,18.4779,VALID,138,VALID,0.443638,
2007-07-31, 03:39:00,VALID,917.554,VALID,0,VALID,100,VALID,0.0679233,VALID,18.4647,VALID,87,VALID,0.467416,
2007-07-31, 03:40:00,VALID,917.54,VALID,0,VALID,100,VALID,0.0849042,VALID,18.5289,VALID,87,VALID,0.625363,
2007-07-31, 03:41:00,VALID,917.522,VALID,0,VALID,100,VALID,0.0849042,VALID,18.6334,VALID,81,VALID,0.898237,
2007-07-31, 03:42:00,VALID,917.505,VALID,0,VALID,100,VALID,0.0849042,VALID,18.6561,VALID,64,VALID,1.08212,